[[{"header":{"parameterUnit":"m.s-1","parameterCategory":1,"la1":30.2991,"la2":30.254,"lo1":-89.0895,"lo2":-89.0444,"dy":0.0017,"dx":0.0017,"nx":28,"ny":28,"refTime":"2025-04-26T03:00:00:Z","depth":0,"parameterNumber":2,"parameterNumberName":"U-component_of_WINDS"},"data":[0,0,0,0,0,0,0,0,0,0,0,0,0,0,0,0,0,0,0,0,0,0,0,0,0,0,0,0,0,0,0,0,0,0,0,0,0,0,0,0,0,0,0,0,0,0,0,0,0,0,0,0,0,0,0,0,0,0,0.5237,0.5238,0,0.5354,0.5356,0.5357,0.5405,0.5405,0.5405,0.5404,0.5526,0.553,0.5533,0,0,0,0,0,0,0,0,0,0,0,0,0,0.5055,0.5058,0.5237,0.5239,0.524,0.5354,0.5356,0.5357,0.5405,0.5405,0.5405,0.5404,0.5525,0.5529,0.5534,0,0,0,0,0,0,0,0,0,0,0,0,0,0.5149,0.5059,0.5237,0.5278,0.5282,0.5354,0.5356,0.5358,0.5405,0.5405,0.5404,0.5404,0.5524,0.5529,0.5534,0.5575,0,0,0.555,0.5553,0,0,0,0,0,0,0,0,0.5144,0.5156,0.527,0.5275,0.528,0.5365,0.5337,0.5431,0.5405,0.5359,0.5404,0.5404,0.5473,0.5482,0.5505,0.558,0.5586,0.5551,0.5554,0.5556,0.5558,0,0,0,0,0,0,0,0.5137,0.5151,0.5284,0.5272,0.5278,0.529,0.5303,0.5355,0.5417,0.5363,0.5366,0.538,0.5476,0.55,0.5509,0.5587,0.5551,0.5555,0.5558,0.5561,0.5701,0.5701,0,0,0,0,0,0,0.5124,0.5146,0.528,0.5287,0.521,0.5294,0.5308,0.5338,0.5416,0.5428,0.538,0.5381,0.5491,0.5502,0.5513,0.5565,0.5556,0.5561,0.5564,0.57,0.5701,0.5701,0,0,0,0,0,0,0.512,0.5136,0.5275,0.5217,0.5236,0.5297,0.533,0.5341,0.5365,0.5429,0.5441,0.5393,0.5492,0.5506,0.5559,0.557,0.5563,0.5568,0.5699,0.57,0.5701,0.567,0,0,0,0,0,0,0.5115,0.5134,0.515,0.5217,0.5239,0.5318,0.5331,0.5343,0.5374,0.5377,0.5445,0.5456,0.5492,0.5551,0.5564,0.5577,0.5572,0.5699,0.57,0.5701,0.567,0.5669,0.5669,0,0,0,0,0,0.5108,0.5137,0.515,0.5166,0.526,0.5319,0.5331,0.5372,0.5374,0.5391,0.5432,0.5454,0.5566,0.5556,0.5571,0.5586,0.5698,0.5699,0.5701,0.567,0.5669,0.5669,0,0,0,0,0,0,0.5069,0.5146,0.5162,0.5214,0.5259,0.5327,0.5349,0.537,0.5417,0.5418,0.5467,0.5482,0.5531,0.5564,0.555,0.5629,0.5634,0.5638,0.5605,0.5605,0.5605,0.5596,0.5577,0,0,0,0,0,0.5066,0.5107,0.5173,0.5212,0.5234,0.5287,0.5314,0.5342,0.5391,0.5411,0.5456,0.5504,0.555,0.558,0.5626,0.5675,0.569,0.5693,0.5692,0.5691,0.5695,0.5723,0.5724,0.5706,0.5706,0.5706,0,0,0.5062,0.5109,0.5132,0.5205,0.5244,0.5285,0.5303,0.5347,0.5378,0.5418,0.547,0.5505,0.5561,0.5612,0.5637,0.5641,0.5703,0.5693,0.5692,0.5696,0.5724,0.5726,0.5727,0.5706,0.5706,0.5706,0,0,0.5074,0.5114,0.515,0.5188,0.5246,0.5282,0.529,0.5355,0.5379,0.5432,0.5463,0.5501,0.558,0.5618,0.5648,0.5674,0.5696,0.5688,0.5685,0.5712,0.5713,0.5715,0.5724,0.5726,0.5691,0.5691,0.5691,0,0.5061,0.5124,0.5167,0.5208,0.5239,0.5277,0.5314,0.5349,0.5419,0.544,0.5444,0.5543,0.5584,0.5644,0.565,0.5673,0.5685,0.5681,0.5709,0.5711,0.5714,0.5723,0.5726,0.569,0.569,0.569,0.569,0,0.5105,0.5148,0.5171,0.5237,0.5271,0.531,0.5359,0.5388,0.5412,0.5447,0.55,0.555,0.5607,0.5623,0.5648,0.5687,0.5688,0.57,0.5706,0.5713,0.5723,0.5727,0.5688,0.5688,0.5689,0.5689,0,0,0.5097,0.5185,0.5193,0.5223,0.5289,0.5324,0.5364,0.5419,0.5443,0.549,0.5525,0.5591,0.5602,0.5636,0.5665,0.5688,0.5705,0.5698,0.57,0.5697,0.5751,0.5741,0.5745,0.572,0.572,0.5721,0.5746,0,0.5118,0.5192,0.5231,0.5289,0.5329,0.5365,0.5401,0.5445,0.5478,0.5518,0.5555,0.56,0.5612,0.5633,0.5657,0.5698,0.5717,0.5697,0.5753,0.5755,0.5738,0.575,0.574,0.5762,0.575,0.5751,0.5751,0,0.5152,0.5198,0.526,0.5321,0.5339,0.537,0.5423,0.546,0.5512,0.5534,0.5571,0.56,0.5645,0.5647,0.5709,0.5694,0.572,0.5743,0.5745,0.5752,0.5754,0.5757,0.5769,0.5772,0.5758,0.5757,0.5757,0,0.514,0.5217,0.5263,0.5288,0.5361,0.5382,0.5413,0.5464,0.5494,0.554,0.556,0.5611,0.5639,0.5678,0.572,0.5717,0.5777,0.5783,0.5798,0.5796,0.5809,0.5808,0.5825,0.5825,0.5825,0.5825,0.5825,0,0.5159,0.5195,0.5259,0.5287,0.5329,0.5373,0.5413,0.5447,0.5492,0.5528,0.5562,0.5595,0.5648,0.5688,0.5721,0.5767,0.578,0.5799,0.5808,0.5796,0.5794,0.5814,0.5814,0.5826,0.5826,0.5825,0.5825,0,0.5152,0.5196,0.5249,0.5313,0.533,0.5358,0.5413,0.5442,0.5477,0.5522,0.5535,0.559,0.5638,0.5683,0.5748,0.577,0.5817,0.5828,0.5799,0.5804,0.5816,0.5814,0.5847,0.5853,0.5848,0.5848,0.5848,0,0.5162,0.519,0.5257,0.5283,0.5314,0.5356,0.5386,0.5431,0.5462,0.5522,0.5544,0.5594,0.5638,0.5713,0.5759,0.5809,0.5821,0.5829,0.5829,0.5817,0.5821,0.5819,0.5822,0.5829,0.5828,0.5828,0.5828,0,0.5174,0.5194,0.5237,0.5287,0.5322,0.5364,0.5407,0.5427,0.548,0.5512,0.5562,0.5595,0.5661,0.5711,0.5766,0.5798,0.5822,0.5828,0.5834,0.5823,0.5805,0.5815,0.5797,0.5827,0.5827,0.5827,0.5827,0.5827,0.5175,0.5202,0.5253,0.53,0.5337,0.5376,0.5406,0.5444,0.5486,0.5543,0.5567,0.5617,0.5667,0.5743,0.5775,0.5815,0.5821,0.5829,0.5831,0.5833,0.5831,0.5798,0.5826,0.5826,0.5826,0.5826,0.5826,0,0.5189,0.5224,0.5266,0.5324,0.5361,0.5379,0.5428,0.5457,0.55,0.5545,0.5586,0.5643,0.5692,0.5741,0.5792,0.5815,0.5827,0.5827,0.5826,0.5833,0.5823,0.5813,0.5816,0.5816,0.5816,0.5816,0.5816,0.5816,0.5201,0.5247,0.5273,0.5338,0.5372,0.5421,0.5447,0.5484,0.5519,0.5581,0.5621,0.5653,0.5699,0.5754,0.5799,0.5812,0.583,0.5826,0.5843,0.5833,0.5833,0.5834,0.5824,0.583,0.583,0.5849,0.5849,0.5849]},{"header":{"parameterUnit":"m.s-1","parameterCategory":1,"la1":30.2991,"la2":30.254,"lo1":-89.0895,"lo2":-89.0444,"dy":0.0017,"dx":0.0017,"nx":28,"ny":28,"refTime":"2025-04-26T03:00:00:Z","depth":0,"parameterNumber":3,"parameterNumberName":"V-component_of_WINDS"},"data":[0,0,0,0,0,0,0,0,0,0,0,0,0,0,0,0,0,0,0,0,0,0,0,0,0,0,0,0,0,0,0,0,0,0,0,0,0,0,0,0,0,0,0,0,0,0,0,0,0,0,0,0,0,0,0,0,0,0,2.8823,2.8823,0,2.8778,2.8778,2.8777,2.8734,2.8733,2.8733,2.8732,2.8682,2.8681,2.868,0,0,0,0,0,0,0,0,0,0,0,0,0,2.8871,2.887,2.8824,2.8823,2.8822,2.8778,2.8778,2.8777,2.8734,2.8733,2.8733,2.8732,2.8682,2.8681,2.868,0,0,0,0,0,0,0,0,0,0,0,0,0,2.884,2.887,2.8824,2.8796,2.8793,2.8778,2.8777,2.8777,2.8734,2.8733,2.8733,2.8732,2.8683,2.8682,2.868,2.8688,0,0,2.8676,2.8676,0,0,0,0,0,0,0,0,2.8842,2.8838,2.88,2.8798,2.8794,2.8761,2.8776,2.8747,2.8734,2.8756,2.8732,2.8731,2.8709,2.8705,2.8698,2.8686,2.8684,2.8676,2.8676,2.8675,2.8675,0,0,0,0,0,0,0,2.8844,2.884,2.8805,2.88,2.8796,2.8785,2.8779,2.877,2.8737,2.8754,2.8751,2.8747,2.8707,2.87,2.8697,2.8683,2.8676,2.8675,2.8674,2.8674,2.8676,2.8676,0,0,0,0,0,0,2.8851,2.8842,2.8807,2.8804,2.8817,2.8785,2.8779,2.8772,2.8737,2.8731,2.8747,2.8745,2.8702,2.8698,2.8695,2.8702,2.8675,2.8674,2.8673,2.8675,2.8676,2.8677,0,0,0,0,0,0,2.8852,2.8848,2.8809,2.8822,2.8816,2.8785,2.8778,2.8772,2.8765,2.8732,2.8726,2.8746,2.8702,2.8697,2.8691,2.87,2.8673,2.8672,2.8674,2.8675,2.8676,2.8717,0,0,0,0,0,0,2.8854,2.8849,2.8852,2.8823,2.8816,2.8806,2.8778,2.8772,2.8763,2.8759,2.8729,2.8724,2.8701,2.8693,2.869,2.8698,2.8671,2.8673,2.8674,2.8676,2.8715,2.872,2.8724,0,0,0,0,0,2.8855,2.8864,2.8852,2.8848,2.8819,2.8807,2.8803,2.8777,2.8764,2.8767,2.8746,2.8725,2.87,2.8693,2.8688,2.8696,2.8672,2.8674,2.8676,2.8713,2.8719,2.8724,0,0,0,0,0,0,2.8894,2.886,2.8846,2.8846,2.883,2.88,2.8802,2.8784,2.877,2.8767,2.8734,2.8728,2.8726,2.871,2.8703,2.8703,2.8683,2.8684,2.8713,2.8718,2.8722,2.8726,2.867,0,0,0,0,0,2.8903,2.8897,2.8867,2.887,2.8862,2.8834,2.8827,2.8809,2.879,2.8783,2.8761,2.8743,2.8731,2.8724,2.8711,2.8713,2.8705,2.8716,2.8721,2.8725,2.8726,2.8726,2.873,2.8683,2.8682,2.8682,0,0,2.8921,2.8901,2.8899,2.8877,2.8862,2.8856,2.8828,2.8822,2.8816,2.8781,2.8775,2.8759,2.8736,2.8734,2.8732,2.8721,2.8738,2.8727,2.873,2.8729,2.8728,2.8733,2.8737,2.8684,2.8684,2.8683,0,0,2.8949,2.8934,2.8935,2.8922,2.89,2.8881,2.8882,2.8854,2.8843,2.8836,2.881,2.8802,2.8782,2.8768,2.8757,2.8782,2.8762,2.8779,2.8802,2.8802,2.8806,2.8809,2.8818,2.8822,2.878,2.878,2.878,0,2.8974,2.8964,2.8938,2.8934,2.8925,2.8895,2.8895,2.8883,2.8858,2.8852,2.884,2.8816,2.8798,2.8793,2.8799,2.8792,2.8791,2.8782,2.8808,2.8811,2.8813,2.8821,2.8825,2.8782,2.8782,2.8782,2.8782,0,2.8994,2.8988,2.8991,2.897,2.8961,2.8959,2.8933,2.8927,2.891,2.8892,2.8886,2.8864,2.8847,2.8844,2.8827,2.8836,2.8831,2.8814,2.8793,2.8821,2.8827,2.883,2.8786,2.8785,2.8784,2.8784,0,0,2.9045,2.9011,2.9012,2.9002,2.8977,2.8971,2.8968,2.8952,2.8948,2.8932,2.8928,2.8913,2.8898,2.8886,2.8867,2.8868,2.8889,2.8851,2.885,2.8859,2.8898,2.8911,2.8915,2.8876,2.8877,2.8877,2.89,0,2.9069,2.9063,2.904,2.904,2.9034,2.9006,2.9003,2.8987,2.8971,2.8962,2.8944,2.8933,2.8915,2.8908,2.8907,2.8887,2.8897,2.8885,2.8871,2.8871,2.8878,2.8918,2.8931,2.8954,2.8903,2.8903,2.8903,0,2.9096,2.9084,2.9084,2.906,2.9056,2.9054,2.9038,2.9031,2.9012,2.9,2.8989,2.8968,2.8962,2.8944,2.8936,2.8929,2.8922,2.8911,2.8911,2.8909,2.8889,2.8916,2.8961,2.8964,2.8907,2.8907,2.8907,0,2.9133,2.9116,2.9114,2.9106,2.9078,2.9078,2.9066,2.9046,2.9039,2.9025,2.9019,2.9005,2.8996,2.8985,2.8961,2.895,2.8955,2.8935,2.8945,2.8945,2.8946,2.8947,2.899,2.8943,2.8943,2.8943,2.8943,0,2.9162,2.9163,2.913,2.9129,2.9129,2.9104,2.9104,2.9089,2.9073,2.9068,2.9042,2.9038,2.9006,2.8998,2.8979,2.8975,2.8971,2.8961,2.8956,2.8963,2.8964,2.8958,2.8955,2.8944,2.8944,2.8943,2.8943,0,2.9202,2.9181,2.9177,2.9151,2.9145,2.9146,2.9124,2.9121,2.9104,2.9098,2.9095,2.9068,2.9057,2.9032,2.9014,2.9001,2.9002,2.8993,2.9009,2.9005,2.9017,2.9016,2.9057,2.9061,2.9012,2.9012,2.9013,0,2.9222,2.9222,2.9198,2.9193,2.9183,2.9175,2.9168,2.9143,2.9136,2.9115,2.9115,2.9103,2.9091,2.9075,2.9053,2.9039,2.9029,2.9045,2.9027,2.9035,2.9029,2.903,2.9029,2.9048,2.9049,2.905,2.905,0,2.9259,2.9249,2.924,2.9228,2.922,2.9209,2.9196,2.9193,2.9165,2.9158,2.9148,2.9139,2.9122,2.911,2.9093,2.9079,2.906,2.9056,2.9058,2.9065,2.9074,2.9069,2.9019,2.9055,2.9054,2.9054,2.9054,2.9054,2.929,2.9289,2.9272,2.9263,2.9251,2.924,2.9237,2.922,2.9211,2.9196,2.9181,2.9173,2.9154,2.913,2.9118,2.911,2.91,2.9102,2.9103,2.9103,2.9107,2.9076,2.9107,2.9107,2.9106,2.9106,2.9106,0,2.9325,2.9313,2.9306,2.9289,2.9283,2.9267,2.9252,2.9247,2.924,2.9225,2.9215,2.9203,2.9191,2.9169,2.9156,2.9154,2.9144,2.9151,2.915,2.9148,2.9116,2.9117,2.9159,2.9159,2.9159,2.9159,2.9158,2.9158,2.9343,2.9342,2.9329,2.9322,2.9309,2.9301,2.9294,2.9284,2.9272,2.9261,2.9252,2.9238,2.922,2.9205,2.9194,2.9187,2.9183,2.9193,2.9184,2.9155,2.915,2.9145,2.9145,2.9192,2.9192,2.9215,2.9216,2.9216]}]]